www.pogodaiklimat.ru
ПОГОДА в Ластово

Архив погоды в Ластово (Хорватия)

Время
(UTC), дата
00 26.11
03 26.11
04 26.11
05 26.11
06 26.11
07 26.11
08 26.11
09 26.11
10 26.11
11 26.11
12 26.11
13 26.11
14 26.11
15 26.11
16 26.11
17 26.11
18 26.11
19 26.11
20 26.11
21 26.11
00 27.11
03 27.11
04 27.11
05 27.11
06 27.11
07 27.11
08 27.11
09 27.11
10 27.11
11 27.11
12 27.11
13 27.11
14 27.11
15 27.11
16 27.11
17 27.11
18 27.11
19 27.11
20 27.11
21 27.11
00 28.11
03 28.11
04 28.11
05 28.11
06 28.11
07 28.11
08 28.11
09 28.11
10 28.11
11 28.11
12 28.11
13 28.11
14 28.11
15 28.11
16 28.11
17 28.11
18 28.11
19 28.11
20 28.11
21 28.11
00 29.11
03 29.11
04 29.11
05 29.11
06 29.11
07 29.11
08 29.11
09 29.11
10 29.11
11 29.11
12 29.11
13 29.11
14 29.11
15 29.11
16 29.11
17 29.11
18 29.11
19 29.11
20 29.11
21 29.11
00 30.11
03 30.11
04 30.11
05 30.11
06 30.11
07 30.11
08 30.11
09 30.11
10 30.11
11 30.11
12 30.11
13 30.11
14 30.11
15 30.11
16 30.11
17 30.11
18 30.11
19 30.11
20 30.11
21 30.11
00 1.12
03 1.12
04 1.12
05 1.12
06 1.12
07 1.12
08 1.12
09 1.12
10 1.12
11 1.12
12 1.12
13 1.12
14 1.12
15 1.12
16 1.12
17 1.12
18 1.12
19 1.12
20 1.12
21 1.12
03 2.12
04 2.12
05 2.12
06 2.12
07 2.12
08 2.12
09 2.12
10 2.12
11 2.12
12 2.12
13 2.12
14 2.12
15 2.12
16 2.12
17 2.12
18 2.12
19 2.12
20 2.12
Ветер
(напр.,м/с)
Видим. Явления Облачность Т
(С)
Тd
(С)
f
(%)
Тe
(С)
Тes
(С)
Комфортность P
(гПа)
Po
(гПа)
Тmin
(С)
Tmax
(С)
R
(мм)
R24
(мм)
S
(см)
Ю 7 н/о н/о +14.2 +13.3 94 +12 +12 1003.6 981.6
ЮВ 13 н/о н/о +13.5 +13.4 99 +10 +10 998.9 976.9
ЮВ 11 н/о н/о +13.1 +13.0 99 +10 +10 997.0 975.0
Ю 14 н/о н/о +12.7 +12.6 99 +9 +9 995.4 973.4
ЮЗ 5 18 км слаб. дождь 10/6 300 м
[Cu Sc As op]
+12.4 +11.5 94 +10 +10 997.4 975.5 +12.1 21 26.2
З 7 25 км в посл. час дождь 5/3 300 м
[Cu med, cong Ac trans Ci ing]
+13.7 +9.6 76 +11 +11 997.5 975.7
З 7 30 км {дождь} 8/6 600 м
[Cu Sc Ac trans]
+13.3 +9.3 77 +11 +11 998.0 976.2
З 6 30 км {дождь} 6/4 600 м
[Cu med, cong Ac trans Ci fib]
+13.8 +9.5 75 +12 +12 998.3 976.5
З 6 30 км {пыльная буря} 5/3 600 м
[Cu med, cong Ac trans Ci sp]
+14.9 +9.6 71 +13 +14 998.5 976.8
З 6 12 км осадки на расстоянии {дождь} 6/3 600 м
[Cu med, cong As op Ci fib]
+13.6 +10.6 82 +11 +12 998.5 976.7
З 5 45 км {дождь} 6/4 300 м
[Cu med, cong Ci sp]
+14.0 +8.8 71 +12 +13 998.6 976.8 2 26.3
З 5 45 км 4/3 300 м
[Cu med, cong Ci sp]
+14.6 +8.0 65 +13 +14 998.3 976.6
З 5 н/о н/о +13.9 +9.8 76 +12 +12 998.3 976.4
ЮЗ 4 н/о н/о +13.4 +10.6 83 +12 +12 998.4 976.4
ЮЗ 8 н/о н/о +12.5 +10.5 88 +9 +9 997.4 975.4
ЮЗ 8 н/о н/о +13.2 +8.7 74 +10 +10 997.5 975.5
Ю 11 25 км зарница {дождь} 3/3 600 м
[Cb calv]
+13.4 +8.5 72 +10 +10 997.1 975.3 +15.1 3
Ю 15 20 км 8/8 600 м
[Cu Sc]
+13.8 +7.5 66 +10 +10 997.1 975.3
Ю 16 20 км 10/10 600 м
[Cu Sc]
+12.8 +7.2 69 +9 +9 996.8 974.9
ЮЗ 11 н/о н/о +13.1 +9.2 77 +10 +10 996.0 974.1
З 14 н/о н/о +14.0 +6.7 61 +11 +11 997.5 975.6
З 6 н/о н/о +13.6 +7.9 68 +12 +12 999.1 977.1
З 4 н/о н/о +13.6 +6.3 61 +12 +12 999.4 977.4
ЮЗ 4 н/о н/о +13.8 +6.7 62 +12 +12 999.6 977.6
Ю 4 45 км 4/3 600 м
[Sc Ac lent Cs]
+14.3 +6.6 60 +13 +13 999.6 977.8 +11.9 2.8
Ю 8 45 км 6/4 600 м
[Sc Cs]
+14.6 +7.0 60 +12 +12 999.7 977.9
Ю 8 45 км 3/1 600 м
[Sc Ac lent Cs]
+14.9 +8.2 64 +13 +13 999.8 978.0
Ю 8 45 км 8/3 600 м
[Sc Ac und Cs]
+15.2 +7.1 58 +13 +14 999.8 978.1
Ю 9 45 км 9/1 600 м
[Sc Ac und Cs]
+15.0 +8.5 65 +13 +13 999.5 977.8
Ю 8 45 км 9/3 600 м
[Sc As trans Cs]
+14.9 +7.8 62 +13 +13 999.4 977.6
Ю 8 45 км 9/1 600 м
[Sc As trans Cs]
+14.5 +7.3 62 +12 +13 999.0 977.2 0.5
Ю 8 40 км 9/1 600 м
[Sc As op Cs]
+14.3 +7.9 65 +12 +12 998.6 976.8
Ю 6 н/о н/о +14.1 +8.6 69 +12 +12 998.4 976.5
ЮЗ 8 н/о н/о +13.0 +9.7 80 +10 +10 998.7 976.7
ЮЗ 6 н/о н/о +13.7 +9.6 76 +12 +12 998.1 976.2
ЮЗ 6 н/о н/о +14.1 +8.8 70 +12 +12 998.2 976.3
Ю 8 45 км 8/3 600 м
[Sc As op Cs]
+14.2 +9.0 71 +12 +12 998.4 976.6 +15.6
Ю 8 45 км 5/3 600 м
[Sc As trans Cs]
+14.1 +9.1 72 +12 +12 998.9 977.1
Ю 8 45 км 4/1 600 м
[Sc As trans Cc]
+13.9 +9.0 72 +11 +11 998.5 976.7
ЮЗ 5 н/о н/о +13.4 +9.1 75 +11 +11 998.4 976.4
ЮЗ 6 н/о н/о +13.8 +7.4 65 +12 +12 998.7 976.7
ЮЗ 6 н/о н/о +13.4 +8.3 71 +11 +11 998.7 976.7
Ю 6 н/о н/о +13.6 +8.3 70 +12 +12 998.6 976.6
Ю 8 н/о н/о +14.0 +7.8 66 +12 +12 997.8 975.9
Ю 9 40 км 5/1 600 м
[Sc As trans Cc]
+14.2 +8.0 66 +12 +12 997.3 975.5 +12.2 0.1
Ю 9 40 км 9/3 600 м
[Sc Ac As Cs]
+14.3 +7.3 63 +12 +12 997.4 975.6
Ю 9 40 км 9/3 600 м
[Sc Ac As Cs]
+14.4 +7.8 65 +12 +12 997.5 975.8
Ю 9 40 км 9/3 600 м
[Sc Ac As Cs]
+14.8 +7.2 60 +13 +13 998.1 976.4
Ю 9 15 км 10/4 600 м
[Sc Ac As]
+15.0 +9.1 68 +13 +13 997.5 975.8
Ю 8 15 км 10/4 300 м
[Sc As op]
+13.7 +9.2 74 +11 +11 997.2 975.4
Ю 9 15 км 10/3 600 м
[Sc As op Cs]
+14.4 +8.2 66 +12 +12 996.2 974.5 0.1
Ю 8 35 км 9/3 600 м
[Sc Ac As Cs]
+14.6 +7.0 60 +12 +13 995.6 973.9
ЮЗ 8 н/о н/о +14.1 +8.1 67 +12 +12 994.7 972.9
ЮЗ 7 н/о н/о +14.5 +8.3 66 +13 +13 994.0 972.2
ЮЗ 10 н/о н/о +14.3 +7.9 65 +12 +12 993.6 971.8
ЮЗ 10 н/о н/о +13.4 +9.1 75 +10 +10 994.3 972.4
Ю 8 25 км 8/3 300 м
[Sc As op]
+13.3 +6.3 63 +11 +11 995.1 973.3 +15.2 0.1
Ю 7 35 км 9/3 600 м
[Sc As op]
+13.0 +6.8 66 +10 +10 995.2 973.4
ЮЗ 8 35 км 10/3 600 м
[Sc As op Cs]
+12.8 +7.4 70 +10 +10 995.1 973.3
З 8 н/о н/о +12.9 +7.0 67 +10 +10 995.1 973.2
С 9 н/о н/о +11.5 +6.7 72 +8 +8 995.3 973.2
СВ 3 н/о н/о +9.5 +4.6 71 +7 +7 995.9 973.7
СВ 10 н/о н/о +6.8 +5.0 88 +1 +1 995.8 973.4
СВ 6 н/о н/о +7.6 +5.3 85 +3 +3 996.1 973.7
С 4 35 км 10/8 600 м
[Sc Cs]
+8.1 +4.6 79 +5 +5 996.6 974.4 +7.6 3 2.8
В 4 35 км 10/8 600 м
[Sc Cs]
+9.2 +3.6 68 +6 +6 997.0 974.8
В 5 15 км слаб. дождь 10/3 300 м
[Sc As op Cs]
+9.0 +5.4 78 +6 +6 996.9 974.6
СВ 4 30 км 9/6 300 м
[Sc Cs]
+8.6 +6.8 88 +5 +6 997.2 975.0
СВ 4 35 км 8/5 600 м
[Sc Cs]
+9.6 +7.3 86 +7 +8 996.8 974.7
СВ 5 20 км 9/6 600 м
[Sc Cs]
+10.0 +7.1 82 +7 +8 995.8 973.8
Ю 5 30 км 9/5 600 м
[Sc Cs]
+10.9 +4.7 66 +8 +9 995.4 973.4 1 3.9
СЗ 5 25 км 10/8 300 м
[Sc Cs]
+10.2 +6.1 76 +7 +7 995.3 973.3
З 3 н/о н/о +7.6 +6.4 92 +5 +5 995.6 973.2
З 5 н/о н/о +8.1 +6.1 87 +4 +4 995.5 973.2
З 7 н/о н/о +7.7 +5.9 88 +3 +3 995.9 973.5
СЗ 3 н/о н/о +8.0 +6.5 90 +5 +5 995.8 973.5
В 14 25 км слаб. дождь 10/6 300 м
[Sc As op]
+6.6 +6.4 99 -0 -0 997.2 974.7 +11.2 13
СВ 8 25 км слаб. дождь 10/3 300 м
[Sc As op]
+5.6 +3.5 86 -0 -0 998.1 975.6
СВ 9 30 км в посл. час дождь 10/6 600 м
[Sc As op]
+5.8 +3.2 83 0 0 998.2 975.8
В 15 н/о н/о +5.5 +3.1 85 -2 -2 999.6 977.0
СВ 11 н/о н/о +5.8 +1.2 72 -0 -0 1003.5 980.8
СВ 6 н/о н/о +6.2 -2.1 55 +2 +2 1007.2 984.5
СВ 6 н/о н/о +6.1 -3.0 52 +2 +2 1008.3 985.5
СВ 8 н/о н/о +5.9 -4.0 49 +1 +1 1009.3 986.5
С 5 55 км 3/3 600 м
[Sc Ac und]
+6.1 -4.9 45 +2 +2 1011.0 988.3 +4.3 1 13.1
С 9 55 км 3/3 600 м
[Sc]
+6.2 -3.0 52 +1 +1 1012.3 989.5
С 10 55 км 3/3 600 м
[Sc]
+6.3 -2.9 52 +1 +1 1013.9 991.1
С 9 55 км 1/1 600 м
[Sc]
+6.9 -3.3 48 +2 +2 1015.4 992.6
С 8 55 км 1/1 600 м
[Sc]
+7.2 -3.9 45 +3 +3 1015.7 992.9
С 7 55 км 1/1 600 м
[Sc]
+7.4 -5.8 39 +3 +4 1016.4 993.6
СЗ 7 55 км 1/1 600 м
[Sc]
+8.2 -4.8 39 +5 +5 1016.3 993.6 13.1
СЗ 7 55 км 1/1 600 м
[Sc]
+8.5 -5.8 36 +5 +6 1016.5 993.8
С 9 н/о н/о +8.5 -4.0 41 +4 +4 1016.5 993.7
С 7 н/о н/о +8.2 -3.6 43 +4 +4 1016.8 994.0
С 6 н/о н/о +8.2 -2.4 47 +5 +5 1017.2 994.4
СЗ 5 н/о н/о +8.5 -3.0 44 +6 +6 1017.6 994.8
С 7 55 км 8/4 600 м
[Sc As op]
+9.5 -2.1 44 +6 +6 1017.7 995.1 +9.7
З 9 55 км 3/3 600 м
[Sc]
+9.5 -3.1 41 +6 +6 1017.6 995.0
З 8 55 км 1/1 600 м
[Sc]
+9.6 -4.0 38 +6 +6 1017.9 995.3
СЗ 7 н/о н/о +9.5 -4.4 37 +6 +6 1018.0 995.3
З 5 н/о н/о +9.9 -1.7 44 +7 +7 1017.9 995.2
ЮЗ 4 н/о н/о +9.6 0.0 51 +7 +7 1017.6 994.9
ЮЗ 4 н/о н/о +9.5 +0.4 53 +7 +7 1017.6 994.9
ЮЗ 3 н/о н/о +9.7 +0.6 53 +8 +8 1017.7 995.0
Ю 2 50 км 4/3 600 м
[Cu med, cong Ci]
+9.7 -0.9 48 +9 +9 1018.3 995.7 +8.9
ЮЗ 1 50 км 4/3 300 м
[Cu med, cong Ci]
+10.3 -0.6 47 +10 +11 1018.6 996.0
Ю 2 50 км 4/3 300 м
[Cu med, cong Ci]
+11.1 0.0 46 +10 +11 1018.7 996.2
Ю 2 50 км 4/3 300 м
[Cu med, cong Ci sp]
+12.8 +1.3 45 +12 +14 1018.5 996.1
Ю 2 50 км 1/0
[Ci fib]
+12.9 +0.6 43 +12 +16 1017.9 995.6
Ю 2 50 км 1/0
[Ci fib]
+13.1 0.0 41 +13 +17 1017.6 995.3
Ю 4 50 км 1/1 300 м
[Cu hum]
+12.6 +0.7 44 +11 +13 1016.8 994.5
Ю 4 50 км 1/1 300 м
[Cu hum Ci fib]
+12.7 +2.0 48 +11 +12 1015.9 993.6
Ю 4 н/о н/о +11.9 +1.6 49 +10 +10 1014.0 991.6
Ю 4 н/о н/о +11.9 +5.4 64 +10 +10 1013.7 991.3
ЮЗ 4 н/о н/о +11.8 +5.3 64 +10 +10 1013.2 990.8
Ю 5 н/о н/о +12.1 +6.0 66 +10 +10 1012.7 990.3
Ю 5 45 км 3/3 300 м
[Cu hum]
+12.5 +5.2 61 +10 +10 1013.5 991.2 +13.2
Ю 8 40 км 3/3 300 м
[Cu hum]
+12.9 +5.7 62 +10 +10 1013.1 990.9
Ю 10 40 км 4/4 300 м
[Cu hum]
+13.1 +6.0 62 +10 +10 1012.7 990.5
ЮЗ 5 н/о н/о +12.9 +8.0 72 +11 +11 1011.1 988.8
ЮЗ 7 н/о н/о +13.0 +8.3 73 +10 +10 1007.2 985.0
ЮЗ 8 н/о н/о +13.1 +8.4 73 +10 +10 1006.7 984.5
Ю 7 н/о н/о +13.3 +8.0 70 +11 +11 1006.1 983.9
Ю 11 50 км 9/1 300 м
[St Ac As]
+13.3 +7.1 66 +10 +10 1006.7 984.7 +12.5
Ю 13 50 км 8/1 300 м
[Cu med, cong Ac As]
+13.5 +7.1 65 +10 +10 1006.9 984.9
Ю 14 40 км 8/3 300 м
[St Ac As]
+13.9 +7.2 64 +11 +11 1007.1 985.1
Ю 13 20 км дождь {пыльная буря} 9/3 300 м
[Cb cap Ac As]
+13.5 +9.2 75 +10 +10 1007.2 985.2
Ю 15 40 км 8/4 300 м
[Sc Ac As]
+13.9 +8.0 68 +10 +10 1006.2 984.2
ЮЗ 15 45 км 8/3 300 м
[Cu hum Ac lent]
+15.5 +7.8 60 +13 +13 1005.3 983.5
ЮЗ 14 40 км 8/0
[Ac As]
+14.1 +7.6 65 +11 +11 1004.6 982.7 0.1 0.1
ЮЗ 14 40 км 10/3 300 м
[Cu hum As op]
+14.1 +7.6 65 +11 +11 1003.9 982.0
Ю 7 н/о н/о +14.0 +9.1 72 +12 +12 1001.9 979.9
Ю 8 н/о н/о +13.6 +9.9 78 +11 +11 1001.1 979.1
ЮЗ 9 н/о н/о +14.5 +9.4 71 +12 +12 1000.6 978.7
Ю 9 н/о н/о +15.0 +8.3 64 +13 +13 1000.0 978.1
Ю 17 35 км 10/3 300 м
[Cu hum Ac As]
+15.1 +8.4 64 +12 +12 1001.5 979.7 +15.6 0.1
ЮЗ 15 30 км 10/3 300 м
[Cu hum Ac As]
+15.1 +8.2 63 +12 +12 1001.7 979.9
Ю 17 30 км 10/3 300 м
[Cu hum Ac As]
+15.3 +7.6 60 +12 +12 1001.6 979.8
Местоположение метеостанции Ластово (Хорватия): широта 42.77 долгота 16.90 высота над уровнем моря 186 м.
В архиве по умолчанию представлена погода в Ластово за последнюю неделю. Архивные данные за месяц целиком и за предыдущие месяцы, начиная с января 2011 года, Вы можете получить, выбрав интересующий диапазон дат из раскрывающегося списка и нажав кнопку "Найти!".
*Определитесь, кто Вы:
Внимание! Время в таблицах - всемирное. Для получения местного времени необходимо прибавить поправку, которая равна 1 ч.
Смотрите также архив погоды в соседних городах и на ближайших метеорологических станциях:
Партнеры нашего сайта:      
Пояснения к столбцам:
  • Ветер - указаны скорость ветра в м/с - средняя за 10 мин, порывы в срок и между сроками (в фигурных скобках) и направление, откуда дует ветер: С - северный,
  • СВ - северо-восточный, В - восточный, ЮВ - юго-восточный, Ю - южный, ЮЗ - юго-западный, З - западный, СЗ - северо-западный.
  • Видимость - горизонтальная дальность видимости в метрах или километрах. При видимости от 1 до 10 км при отсутствии осадков обычно наблюдается дымка, при ухудшении видимости до 1 км и менее - туман. В сухую погоду видимость может ухудшаться дымом, пылью или мглою.
  • Явления - указаны атмосферные явления, наблюдавшиеся в срок или в последний час перед сроком; фигурными скобками обозначены явления, наблюдавшиеся между сроками (за 1-3 часа до срока); квадратными скобками обозначены град или гололедные отложения с указанием их диаметра в мм.
  • Облачность - указаны через наклонную черту общая и нижняя облачность в баллах и высота нижней границы облаков в метрах; квадратными скобками обозначены формы облаков: Ci - перистые, Cs - перисто-слоистые, Cc - перисто-кучевые, Ac - высококучевые, As - высокослоистые, Sc - слоисто-кучевые, Ns - слоисто-дождевые, Cu - кучевые, Cb - кучево-дождевые. Подробнее классификацию облаков см. в Атласе облаков (PDF).
  • T - Температура воздуха - температура, измеренная на высоте 2 м над землей.
  • Td - Температура точки росы - температура, при понижении до которой содержащийся в воздухе водяной пар достигнет насыщения.
  • f - Относительная влажность воздуха - влажноcть воздуха, измеренная на высоте 2 м над землей.
  • Te - Эффективная температура - температура, которую ощущает одетый по сезону человек в тени. Характеристика душности погоды. При расчете учитывается влияние влажности воздуха и скорости ветра на теплоощущения человека.
  • Tes - Эффективная температура на солнце - температура, которую ощущает человек, с поправкой на солнечный нагрев. Характеристика знойности погоды. Зависит от высоты солнца над горизонтом, облачности и скорости ветра. Ночью, в пасмурную погоду, а также при ветре 12 м/с и более поправка равна нулю.
  • P - Атмосферное давление - приведенное к уровню моря атмосферное давление.
  • Po - Атмосферное давление - измеренное на уровне метеостанции атмосферное давление.
  • Tmin - Минимальная температура - минимум температуры воздуха на высоте 2 м над землей.
  • Tmax - Максимальная температура - максимум температуры воздуха на высоте 2 м над землей.
  • R - Количество осадков - Количество выпавших осадков за период времени, мм. При наведении курсора мыши на число - период времени, за который выпало указанное количество осадков.
  • R24 - Количество осадков - Количество выпавших осадков за 24 часа, мм.
  • S - Снежный покров - Высота снежного покрова, см. При наведении курсора мыши на число - состояние снежного покрова и степень покрытия местности в баллах.